Regional Weather Roundup
Issued by NWS Upton, NY

Current Version | Previous Version | Graphics & Text | Print | Product List | Glossary Off
Versions: 1 2 3 4 5 6 7 8 9 10 11 12 13 14 15 16 17 18 19 20 21 22 23 24 25 26 27 28

000
ASUS41 KOKX 211208
RWROKX

REGIONAL WEATHER ROUNDUP
NATIONAL WEATHER SERVICE NEW YORK NY
700 AM EST TUE FEB 21 2017

NOTE: "FAIR" INDICATES FEW OR NO CLOUDS BELOW 12,000 FEET WITH NO
SIGNIFICANT WEATHER AND/OR OBSTRUCTIONS TO VISIBILITY.

NYZ071-072-176-178-NJZ106-104-211300-
NEW YORK CITY METRO AREA

CITY           SKY/WX    TMP DP  RH WIND       PRES   REMARKS
Central Park   PTCLDY    35  17  47 VRB5      30.38F WCI  31
Wall St Helipt NOT AVBL
LaGuardia APRT CLOUDY    37  20  50 E9        30.36F WCI  30
Kennedy INTL   MOCLDY    32  19  58 E8        30.38F WCI  25
Breezy Point     N/A     34 N/A N/A NE5         N/A  WCI  30
Newark/Liberty CLOUDY    33  16  49 N5        30.38S WCI  29
Teterboro      CLOUDY    32  19  58 NW5       30.37S WCI  27
$$

NYZ177-179-078>081-211300-
LONG ISLAND NEW YORK

CITY           SKY/WX    TMP DP  RH WIND       PRES   REMARKS
Jones Beach      N/A     34 N/A N/A NE12        N/A  WCI  25
Matinecock PT    N/A     34 N/A N/A E9          N/A  WCI  26
Farmingdale    CLOUDY    29  19  66 NE5       30.36F WCI  24
MacArthur/ISP  CLOUDY    26  20  77 CALM      30.37F
Shirley        CLOUDY    23  18  81 CALM      30.38F
Westhampton    CLEAR     18  12  77 CALM      30.40F
Southampton    NOT AVBL
Bridgehampton  NOT AVBL
East Hampton     N/A     21  17  83 CALM      30.39R
Montauk          N/A     34  21  59 NE3       30.39R
$$

NYZ052-065-067-211300-
HUDSON VALLEY

CITY           SKY/WX    TMP DP  RH WIND       PRES   REMARKS
White Plains   CLOUDY    30  10  43 E5        30.34F WCI  25
Newburgh       MOCLDY    23  18  80 CALM      30.37F
Montgomery     CLOUDY    22  16  78 CALM      30.35F
Poughkeepsie   CLOUDY    20  15  81 CALM      30.37F
Albany         CLOUDY    18  14  84 CALM      30.37F
$$

NJZ001-105-106-008-010-013-015-019>022-104-211300-
NEW JERSEY

CITY           SKY/WX    TMP DP  RH WIND       PRES   REMARKS
Newark/Liberty CLOUDY    33  16  49 N5        30.38S WCI  29
Teterboro      CLOUDY    32  19  58 NW5       30.37S WCI  27
Caldwell       PTCLDY    28  18  66 N3        30.39R
Somerville       N/A     23  18  81 MISG      30.37R
Linden         NOT AVBL
Sussex         PTCLDY    21  19  92 CALM      30.36R
Andover          N/A     23  18  81 CALM      30.36R
Trenton        CLOUDY    31  16  54 N5        30.36R WCI  26
Millville      CLOUDY    31  21  66 E3        30.36R
Atlantic City  CLOUDY    30  21  69 CALM      30.37R
Wrightstown    PTCLDY    30  17  56 CALM      30.35R
Toms River     PTCLDY    23  18  81 CALM      30.37S
Belmar         NOT AVBL
$$

PAZ047>061-062-071-211300-
EASTERN PENNSYLVANIA

CITY           SKY/WX    TMP DP  RH WIND       PRES   REMARKS
Philadelphia   CLOUDY    35  18  49 NE5       30.38S WCI  31
Allentown      CLOUDY    26  17  68 CALM      30.37S
Scranton       CLOUDY    33  11  39 CALM      30.30S
$$

CTZ002-004>006-009-010-012-RIZ004-006-007-MAZ004-011-015-211300-
SOUTHERN NEW ENGLAND
 IN CT

CITY           SKY/WX    TMP DP  RH WIND       PRES   REMARKS
Bradley INTL   CLOUDY    22  13  68 NE5       30.39F WCI  16
Hartford       CLOUDY    21  16  81 CALM      30.41S
Danbury        CLOUDY    20  15  81 CALM      30.36F
Wtrbury/Oxford CLEAR     28  10  47 CALM      30.34F
Bridgeport     PTCLDY    31  17  56 NE7       30.38F WCI  24
Meriden        CLOUDY    24  17  74 CALM      30.40S
New Haven      CLOUDY    27  14  58 N7        30.39F WCI  19
Chester          N/A     28  12  50 N5        30.37F WCI  23
Groton         CLEAR     29  14  53 NE6       30.39R WCI  23
Wilimantic     CLOUDY    20  16  84 CALM      30.40R

 IN RI

CITY           SKY/WX    TMP DP  RH WIND       PRES   REMARKS
Providence     PTCLDY    28  14  55 NW3       30.39R
Block Island   CLEAR     31  21  66 N7        30.39R WCI  24
Westerly       CLEAR     27  15  61 CALM      30.39R
 IN MA

CITY           SKY/WX    TMP DP  RH WIND       PRES   REMARKS
Boston         PTCLDY    30  15  53 NW7       30.40R WCI  23
Worcester      CLOUDY    29   8  41 N3        30.34R
Westfield      CLOUDY    16  12  84 CALM      30.39S
Provincetown   CLEAR     36  26  67 NE9       30.37R WCI  29
Nantucket      CLEAR     35  28  75 N9        30.35R WCI  28
$$

ANZ330-335-338-340-345-350-353-355-211300-
COASTAL MARINE OBSERVATIONS


STATION/POSITION TIME  SKY/WX   TEMP    WIND        PRES    VSBY  WAVE
                                AIR SEA DIR/SP/G                  HT/PER
                 (UTC)          (F)     (DEG/KT/KT) (MB)    (MI)  (FT/S)
NY HARB ENTRANCE 1050            38 42   60/ 14/ 16 1028.3          2/ 4
20 S FIRE ISLAND 1150            39 42   60/ 12/ 14 1028.0          3/ 5
GREAT SOUTH BAY  NOT AVBL
23 SSW MONTAUK P 1050            38 45              1028.7          3/ 5
15 E BARNEGAT LI 1130               44                N/A           3/ 4
HUDSON CANYON    1150               49              1028.3          4/ 6
KINGS POINT      1142            33 38              1028.0
EXECUTION ROCKS  NOT AVBL
CENTRAL LI SOUND 1100            35     360/  4/  6   N/A           1
EASTERN LI SOUND NOT AVBL
ROBBINS REEF     1142            36      80/ 11/ 12 1028.2
$$


>>>>>>>>>>>>>>>>>>>>>>>>>>>> KEY <<<<<<<<<<<<<<<<<<<<<<<<<<<
>                                                          <
>     SKY/WX - Sky Condition/Present Weather               <
>     TMP    - Temperature in Fahrenheit                   <
>     DP     - Dew Point in Fahrenheit                     <
>     RH     - Relative Humidity in Percent                <
>     WIND   - Direction (from) and Speed in MPH           <
>     PRES   - Mean Sea Level Pressure (inches of Hg)      <
>     WCI    - Wind Chill Index                            <
>     VSB    - VISIBILITY IN MILES                         <
>     HX     - HEAT INDEX                                  <
>     TC     - TEMPERATURE IN CELSIUS                      <
>     VRB    - VARIABLE WIND DIRECTION                     <
>                                                          <
>>>>>>>>>>>>>>>>>>>>>>>>>>>> KEY <<<<<<<<<<<<<<<<<<<<<<<<<<<




USA.gov is the U.S. government's official web portal to all federal, state and local government web resources and services.